Météo par heure à Abay

Ce jour, 2 Décembre, Mercredi

Heure Température Précipitation Vent Pression Humidité
00:00 -21°C° 0 mm 5 m/s 732 mmHg 85%
01:00 -21°C° 0 mm 5 m/s 732 mmHg 84%
02:00 -21°C° 0 mm 5 m/s 731 mmHg 83%
03:00 -21°C° 0 mm 5 m/s 731 mmHg 83%
04:00 -21°C° 0 mm 5 m/s 731 mmHg 82%
05:00 -21°C° 0 mm 5 m/s 731 mmHg 81%
06:00 -21°C° 0 mm 5 m/s 731 mmHg 81%
07:00 -21°C° 0 mm 5 m/s 730 mmHg 81%
08:00 -21°C° 0 mm 5 m/s 730 mmHg 80%
09:00 -20°C° 0 mm 5 m/s 730 mmHg 80%
10:00 -19°C° 0 mm 5 m/s 730 mmHg 80%
11:00 -17°C° 0 mm 6 m/s 730 mmHg 80%
12:00 -17°C° 0 mm 5 m/s 729 mmHg 80%
13:00 -15°C° 0 mm 5 m/s 729 mmHg 80%
14:00 -15°C° 0 mm 5 m/s 728 mmHg 80%
15:00 -17°C° 0 mm 5 m/s 728 mmHg 80%
16:00 -18°C° 0 mm 5 m/s 728 mmHg 79%
17:00 -19°C° 0 mm 5 m/s 727 mmHg 79%
18:00 -19°C° 0 mm 5 m/s 727 mmHg 77%
19:00 -20°C° 0 mm 5 m/s 726 mmHg 76%
20:00 -19°C° 0 mm 4 m/s 726 mmHg 75%
21:00 -19°C° 0 mm 4 m/s 726 mmHg 73%
22:00 -19°C° 0 mm 4 m/s 726 mmHg 71%
23:00 -18°C° 0 mm 3 m/s 726 mmHg 70%

Demain, 3 Décembre, Jeudi

Heure Température Précipitation Vent Pression Humidité
00:00 -19°C° 0 mm 3 m/s 725 mmHg 69%
01:00 -19°C° 0 mm 3 m/s 725 mmHg 68%
02:00 -19°C° 0 mm 3 m/s 724 mmHg 67%
03:00 -19°C° 0 mm 3 m/s 724 mmHg 67%
04:00 -19°C° 0 mm 3 m/s 724 mmHg 67%
05:00 -19°C° 0 mm 3 m/s 724 mmHg 67%
06:00 -19°C° 0 mm 3 m/s 724 mmHg 68%
07:00 -18°C° 0 mm 3 m/s 724 mmHg 69%
08:00 -18°C° 0 mm 3 m/s 724 mmHg 70%
09:00 -17°C° 0 mm 3 m/s 724 mmHg 72%
10:00 -16°C° 0 mm 3 m/s 724 mmHg 75%
11:00 -15°C° 0 mm 3 m/s 724 mmHg 77%
12:00 -14°C° 0 mm 3 m/s 723 mmHg 79%
13:00 -13°C° 0 mm 3 m/s 723 mmHg 80%
14:00 -10°C° 0 mm 2 m/s 723 mmHg 81%
15:00 -12°C° 0 mm 2 m/s 723 mmHg 82%
16:00 -12°C° 0 mm 2 m/s 723 mmHg 83%
17:00 -11°C° 0 mm 1 m/s 723 mmHg 84%
18:00 -11°C° 0 mm 1 m/s 723 mmHg 85%
19:00 -11°C° 0 mm 1 m/s 723 mmHg 87%
20:00 -11°C° 0 mm 1 m/s 722 mmHg 88%
21:00 -12°C° 0 mm 1 m/s 722 mmHg 90%
22:00 -12°C° 0 mm 1 m/s 722 mmHg 91%
23:00 -12°C° 0 mm 1 m/s 722 mmHg 93%

Après-demain, 4 Décembre, Vendredi

Heure Température Précipitation Vent Pression Humidité
00:00 -12°C° 0 mm 1 m/s 722 mmHg 93%
01:00 -12°C° 0 mm 1 m/s 722 mmHg 94%
02:00 -12°C° 0 mm 0 m/s 722 mmHg 95%
03:00 -12°C° 0 mm 0 m/s 722 mmHg 95%
04:00 -12°C° 0 mm 1 m/s 722 mmHg 95%
05:00 -12°C° 0 mm 1 m/s 722 mmHg 95%
06:00 -12°C° 0 mm 1 m/s 722 mmHg 95%
07:00 -13°C° 0 mm 1 m/s 722 mmHg 96%
08:00 -13°C° 0 mm 1 m/s 722 mmHg 96%
09:00 -13°C° 0 mm 1 m/s 722 mmHg 95%
10:00 -12°C° 0 mm 1 m/s 722 mmHg 94%
11:00 -11°C° 0 mm 1 m/s 723 mmHg 93%
12:00 -11°C° 0 mm 1 m/s 723 mmHg 94%
13:00 -11°C° 0 mm 1 m/s 722 mmHg 94%
14:00 -11°C° 0 mm 1 m/s 722 mmHg 94%
15:00 -12°C° 0 mm 1 m/s 722 mmHg 95%
16:00 -14°C° 0 mm 1 m/s 722 mmHg 96%
17:00 -17°C° 0 mm 2 m/s 722 mmHg 97%
18:00 -17°C° 0 mm 2 m/s 722 mmHg 97%
19:00 -18°C° 0 mm 2 m/s 722 mmHg 97%
20:00 -19°C° 0 mm 2 m/s 723 mmHg 97%
21:00 -19°C° 0 mm 2 m/s 723 mmHg 97%
22:00 -19°C° 0 mm 2 m/s 722 mmHg 97%
23:00 -20°C° 0 mm 2 m/s 722 mmHg 97%

5 Décembre, Samedi

Heure Température Précipitation Vent Pression Humidité
00:00 -20°C° 0 mm 2 m/s 722 mmHg 97%
01:00 -20°C° 0 mm 2 m/s 723 mmHg 97%
02:00 -20°C° 0 mm 2 m/s 723 mmHg 97%
03:00 -21°C° 0 mm 2 m/s 723 mmHg 97%
04:00 -21°C° 0 mm 2 m/s 723 mmHg 97%
05:00 -21°C° 0 mm 2 m/s 723 mmHg 97%
06:00 -21°C° 0 mm 2 m/s 723 mmHg 97%
07:00 -24°C° 0 mm 3 m/s 723 mmHg 97%
08:00 -24°C° 0 mm 3 m/s 723 mmHg 97%
09:00 -23°C° 0 mm 3 m/s 724 mmHg 96%
10:00 -22°C° 0 mm 3 m/s 724 mmHg 95%
11:00 -19°C° 0 mm 2 m/s 724 mmHg 94%
12:00 -19°C° 0 mm 2 m/s 724 mmHg 93%
13:00 -19°C° 0 mm 2 m/s 724 mmHg 93%
14:00 -19°C° 0 mm 2 m/s 724 mmHg 92%
15:00 -20°C° 0 mm 2 m/s 724 mmHg 93%
16:00 -21°C° 0 mm 2 m/s 724 mmHg 94%
17:00 -23°C° 0 mm 2 m/s 724 mmHg 95%
18:00 -23°C° 0 mm 2 m/s 724 mmHg 94%
19:00 -24°C° 0 mm 2 m/s 725 mmHg 92%
20:00 -24°C° 0 mm 2 m/s 725 mmHg 91%
21:00 -21°C° 0 mm 1 m/s 725 mmHg 90%
22:00 -21°C° 0 mm 1 m/s 725 mmHg 90%
23:00 -21°C° 0 mm 1 m/s 725 mmHg 89%

6 Décembre, Dimanche

Heure Température Précipitation Vent Pression Humidité
00:00 -22°C° 0 mm 1 m/s 725 mmHg 89%
01:00 -22°C° 0 mm 1 m/s 725 mmHg 88%
02:00 -22°C° 0 mm 1 m/s 726 mmHg 88%
03:00 -22°C° 0 mm 1 m/s 726 mmHg 88%
04:00 -22°C° 0 mm 1 m/s 726 mmHg 88%
05:00 -22°C° 0 mm 1 m/s 726 mmHg 89%
06:00 -22°C° 0 mm 1 m/s 726 mmHg 89%
07:00 -22°C° 0 mm 1 m/s 727 mmHg 90%
08:00 -22°C° 0 mm 1 m/s 727 mmHg 91%
09:00 -21°C° 0 mm 1 m/s 727 mmHg 90%
10:00 -19°C° 0 mm 1 m/s 727 mmHg 88%
11:00 -18°C° 0 mm 1 m/s 728 mmHg 87%
12:00 -17°C° 0 mm 1 m/s 727 mmHg 87%
13:00 -17°C° 0 mm 1 m/s 727 mmHg 86%
14:00 -16°C° 0 mm 1 m/s 727 mmHg 86%
15:00 -17°C° 0 mm 1 m/s 727 mmHg 86%
16:00 -18°C° 0 mm 1 m/s 727 mmHg 86%
17:00 -19°C° 0 mm 1 m/s 726 mmHg 86%
18:00 -19°C° 0 mm 1 m/s 726 mmHg 85%
19:00 -19°C° 0 mm 1 m/s 726 mmHg 83%
20:00 -19°C° 0 mm 1 m/s 726 mmHg 82%
21:00 -20°C° 0 mm 2 m/s 726 mmHg 80%
22:00 -20°C° 0 mm 2 m/s 725 mmHg 78%
23:00 -19°C° 0 mm 2 m/s 725 mmHg 77%

7 Décembre, Lundi

Heure Température Précipitation Vent Pression Humidité
00:00 -19°C° 0 mm 2 m/s 725 mmHg 76%
01:00 -18°C° 0 mm 2 m/s 724 mmHg 76%
02:00 -18°C° 0 mm 2 m/s 724 mmHg 75%
03:00 -17°C° 0 mm 2 m/s 724 mmHg 76%
04:00 -16°C° 0 mm 2 m/s 724 mmHg 77%
05:00 -16°C° 0 mm 2 m/s 724 mmHg 78%
06:00 -15°C° 0 mm 2 m/s 724 mmHg 79%
07:00 -15°C° 0 mm 2 m/s 723 mmHg 81%
08:00 -16°C° 0 mm 3 m/s 723 mmHg 82%
09:00 -16°C° 0 mm 3 m/s 723 mmHg 84%
10:00 -15°C° 0 mm 3 m/s 723 mmHg 85%
11:00 -14°C° 0 mm 3 m/s 723 mmHg 87%
12:00 -13°C° 0 mm 2 m/s 723 mmHg 87%
13:00 -13°C° 0 mm 2 m/s 723 mmHg 86%
14:00 -13°C° 0 mm 2 m/s 722 mmHg 86%
15:00 -14°C° 0 mm 2 m/s 722 mmHg 85%
16:00 -15°C° 0 mm 2 m/s 722 mmHg 85%
17:00 -16°C° 0 mm 2 m/s 722 mmHg 84%
18:00 -17°C° 0 mm 2 m/s 722 mmHg 85%
19:00 -15°C° 0 mm 1 m/s 722 mmHg 85%
20:00 -15°C° 0 mm 1 m/s 722 mmHg 86%
21:00 -16°C° 0 mm 1 m/s 722 mmHg 86%
22:00 -16°C° 0 mm 1 m/s 722 mmHg 87%
23:00 -16°C° 0 mm 1 m/s 722 mmHg 87%
Voir plus

Nous avons besoin de votre consentement

Meteoprog et ses fournisseurs de services peuvent stocker et accéder à des données personnelles telles que des cookies, des identifiants d'appareils ou d'autres technologies similaires sur votre appareil et traiter ces données pour personnaliser le contenu et les publicités, ainsi que pour fournir des fonctionnalités de médias sociaux et analyser le trafic.

  • Stocker et/ou accéder à des informations sur votre appareil

    Des cookies, des identifiants d'appareils ou d'autres informations peuvent être stockés ou accessibles sur votre appareil aux fins indiquées ci-dessus.

  • Annonces et contenus personnalisés, mesure des annonces et des contenus, connaissance de l'audience et développement de produits

    Les annonces et le contenu peuvent être personnalisés en fonction d'un profil. D'autres données peuvent être ajoutées pour mieux personnaliser les annonces et le contenu. Les performances des publicités et du contenu peuvent être mesurées. Il est possible d'obtenir des informations sur le public qui a vu les publicités et le contenu. Ces données peuvent être utilisées pour développer ou améliorer l'expérience de l'utilisateur, les systèmes et les logiciels.

En cliquant sur "J'accepte", vous autorisez l'utilisation de cookies, des identifiants d'appareils, des balises web ou d'autres technologies similaires. Vos paramètres peuvent être modifiés dans le navigateur de votre appareil.

Dans certains cas, des intérêts légitimes peuvent être invoqués plutôt qu'un consentement. Vous pouvez en savoir plus à ce sujet dans notre Politique de confidentialité et de cookies.